ISR226 LLBG-LCLK

Flight info

Callsign ISR226
Flight time N/A
Altitude 26000
Route DAFNA DCT VELOX N131 EMEDA
Aircraft A20N/M-SDE2E3FGHIRWXY/LB1

Departure

Time N/A
Airport Ben Gurion International Airport (LLBG)

Arrival

Time 2026-04-29 14:39
Airport Larnaca International Airport (LCLK)
Time Latitude Longitude Altitude Speed Heading
2026-04-29 14:08 32.47193 34.31023 19693 ft 373 kts 302°
2026-04-29 14:08 32.48267 34.28229 20253 ft 376 kts 286°
2026-04-29 14:09 32.48947 34.25231 20808 ft 378 kts 291°
2026-04-29 14:09 32.50347 34.22611 21320 ft 380 kts 315°
2026-04-29 14:09 32.52556 34.20917 21841 ft 384 kts 339°
2026-04-29 14:09 32.55183 34.20286 22348 ft 389 kts 353°
2026-04-29 14:10 32.57877 34.19930 22876 ft 391 kts 350°
2026-04-29 14:10 32.60571 34.19405 23383 ft 393 kts 348°
2026-04-29 14:10 32.63224 34.18792 23831 ft 395 kts 347°
2026-04-29 14:10 32.65926 34.18126 24250 ft 397 kts 346°
2026-04-29 14:11 32.68639 34.17463 24663 ft 399 kts 347°
2026-04-29 14:11 32.71370 34.16816 25072 ft 401 kts 347°
2026-04-29 14:11 32.74116 34.16188 25478 ft 403 kts 347°
2026-04-29 14:11 32.76876 34.15574 25857 ft 405 kts 347°
2026-04-29 14:12 32.79655 34.14969 25999 ft 407 kts 347°
2026-04-29 14:12 32.82460 34.14365 26016 ft 412 kts 348°
2026-04-29 14:12 32.85293 34.13754 26018 ft 414 kts 348°
2026-04-29 14:12 32.88128 34.13138 26017 ft 414 kts 347°
2026-04-29 14:13 32.90968 34.12519 26018 ft 415 kts 347°
2026-04-29 14:13 32.93801 34.11896 26019 ft 415 kts 347°
2026-04-29 14:13 32.96639 34.11267 26019 ft 415 kts 347°
2026-04-29 14:13 32.99474 34.10638 26019 ft 415 kts 347°
2026-04-29 14:14 33.02311 34.10009 26021 ft 415 kts 347°
2026-04-29 14:14 33.05149 34.09380 26022 ft 415 kts 348°
2026-04-29 14:14 33.07983 34.08756 26019 ft 414 kts 348°
2026-04-29 14:14 33.10820 34.08131 26025 ft 414 kts 348°
2026-04-29 14:15 33.13655 34.07507 26019 ft 414 kts 348°
2026-04-29 14:15 33.16492 34.06880 26017 ft 414 kts 348°
2026-04-29 14:15 33.19324 34.06252 26017 ft 414 kts 348°
2026-04-29 14:15 33.22157 34.05626 26018 ft 414 kts 348°
2026-04-29 14:16 33.24995 34.04998 26015 ft 414 kts 348°
2026-04-29 14:16 33.27827 34.04368 26014 ft 414 kts 348°
2026-04-29 14:16 33.30658 34.03737 26013 ft 414 kts 348°
2026-04-29 14:16 33.33489 34.03107 26015 ft 414 kts 348°
2026-04-29 14:17 33.36317 34.02479 26014 ft 414 kts 348°
2026-04-29 14:17 33.39149 34.01848 26017 ft 414 kts 348°
2026-04-29 14:17 33.41985 34.01217 26015 ft 414 kts 348°
2026-04-29 14:17 33.44817 34.00586 26013 ft 414 kts 348°
2026-04-29 14:18 33.47648 33.99955 25929 ft 412 kts 348°
2026-04-29 14:18 33.50445 33.99332 25685 ft 407 kts 348°
2026-04-29 14:18 33.53220 33.98715 25434 ft 404 kts 348°
2026-04-29 14:18 33.55978 33.98099 25189 ft 403 kts 348°
2026-04-29 14:19 33.58729 33.97483 24960 ft 402 kts 348°
2026-04-29 14:19 33.61473 33.96865 24724 ft 401 kts 348°
2026-04-29 14:19 33.64210 33.96249 24494 ft 400 kts 348°
2026-04-29 14:19 33.66945 33.95633 24258 ft 399 kts 348°
2026-04-29 14:20 33.69667 33.95022 24028 ft 398 kts 348°
2026-04-29 14:20 33.72388 33.94413 23799 ft 397 kts 349°
2026-04-29 14:20 33.75100 33.93805 23570 ft 396 kts 349°
2026-04-29 14:20 33.77809 33.93198 23301 ft 395 kts 349°
2026-04-29 14:21 33.80482 33.92599 23028 ft 394 kts 349°
2026-04-29 14:23 33.80958 33.92491 22917 ft 394 kts 348°
2026-04-29 14:23 33.83656 33.91879 22405 ft 392 kts 348°
2026-04-29 14:23 33.86364 33.91268 22138 ft 390 kts 349°
2026-04-29 14:24 33.89025 33.90668 21879 ft 389 kts 349°
2026-04-29 14:24 33.91678 33.90071 21619 ft 387 kts 349°
2026-04-29 14:24 33.94322 33.89476 21362 ft 386 kts 349°
2026-04-29 14:24 33.96924 33.88890 21112 ft 385 kts 349°
2026-04-29 14:25 33.99557 33.88297 20863 ft 384 kts 349°
2026-04-29 14:25 34.02213 33.87697 20605 ft 383 kts 349°
2026-04-29 14:25 34.04827 33.87105 20356 ft 382 kts 348°
2026-04-29 14:25 34.07399 33.86524 20116 ft 381 kts 348°
2026-04-29 14:26 34.09997 33.85936 19868 ft 380 kts 349°
2026-04-29 14:26 34.12592 33.85349 19622 ft 379 kts 349°
2026-04-29 14:26 34.15177 33.84763 19393 ft 378 kts 348°
2026-04-29 14:26 34.17754 33.84176 19157 ft 376 kts 348°
2026-04-29 14:27 34.20324 33.83590 18909 ft 374 kts 348°
2026-04-29 14:27 34.22862 33.83014 18516 ft 369 kts 348°
2026-04-29 14:27 34.25384 33.82442 17985 ft 368 kts 348°
2026-04-29 14:28 34.30369 33.81313 16980 ft 361 kts 348°
2026-04-29 14:28 34.32823 33.80754 16476 ft 358 kts 348°
2026-04-29 14:28 34.35266 33.80194 15979 ft 356 kts 348°
2026-04-29 14:28 34.37689 33.79638 15481 ft 353 kts 348°
2026-04-29 14:29 34.40102 33.79087 14976 ft 352 kts 348°
2026-04-29 14:29 34.42500 33.78542 14484 ft 350 kts 348°
2026-04-29 14:29 34.44888 33.77999 13979 ft 349 kts 348°
2026-04-29 14:29 34.47271 33.77457 13451 ft 348 kts 348°
2026-04-29 14:30 34.49640 33.76920 12929 ft 345 kts 348°
2026-04-29 14:30 34.51991 33.76384 12433 ft 342 kts 347°
2026-04-29 14:30 34.54324 33.75847 11938 ft 340 kts 347°
2026-04-29 14:30 34.55121 33.75641 11796 ft 338 kts 345°
2026-04-29 14:31 34.57414 33.75018 11275 ft 337 kts 347°
2026-04-29 14:31 34.59715 33.74481 10785 ft 336 kts 348°
2026-04-29 14:31 34.61996 33.73973 10473 ft 329 kts 346°
2026-04-29 14:31 34.64167 33.73163 10353 ft 316 kts 340°
2026-04-29 14:32 34.66205 33.72291 10222 ft 305 kts 340°
2026-04-29 14:32 34.68166 33.71429 10069 ft 296 kts 339°
2026-04-29 14:32 34.70084 33.70576 9920 ft 290 kts 339°
2026-04-29 14:32 34.72037 33.69925 9562 ft 297 kts 357°
2026-04-29 14:33 34.74028 33.70487 9167 ft 296 kts 31°
2026-04-29 14:33 34.75463 33.72212 8852 ft 292 kts 58°
2026-04-29 14:33 34.76464 33.74366 8440 ft 293 kts 60°
2026-04-29 14:33 34.77639 33.76376 8103 ft 291 kts 48°
2026-04-29 14:34 34.79161 33.77992 7730 ft 291 kts 34°
2026-04-29 14:34 34.80927 33.79186 7371 ft 291 kts 24°
2026-04-29 14:34 34.82800 33.80023 7030 ft 290 kts 15°
2026-04-29 14:34 34.84795 33.80567 6691 ft 289 kts
2026-04-29 14:35 34.86791 33.80795 6351 ft 288 kts
2026-04-29 14:35 34.88117 33.80779 6123 ft 288 kts 356°
2026-04-29 14:35 34.90098 33.80502 5710 ft 288 kts 348°
2026-04-29 14:35 34.92706 33.79606 4839 ft 291 kts 337°
2026-04-29 14:36 34.93939 33.78942 4352 ft 296 kts 332°
2026-04-29 14:36 34.95660 33.77517 3544 ft 302 kts 310°
2026-04-29 14:36 34.96539 33.75292 3064 ft 286 kts 276°
2026-04-29 14:36 34.96250 33.73035 2928 ft 262 kts 242°
2026-04-29 14:37 34.94654 33.71115 2819 ft 233 kts 219°
2026-04-29 14:37 34.93825 33.70256 2513 ft 232 kts 223°
2026-04-29 14:37 34.92666 33.68882 2073 ft 227 kts 226°
2026-04-29 14:37 34.91613 33.67588 1834 ft 205 kts 226°
2026-04-29 14:38 34.90620 33.66398 1235 ft 198 kts 224°
2026-04-29 14:38 34.89657 33.65237 665 ft 186 kts 226°
2026-04-29 14:38 34.88821 33.64162 305 ft 167 kts 225°
2026-04-29 14:38 34.88055 33.63236 57 ft 142 kts 224°
2026-04-29 14:39 34.87444 33.62496 21 ft 109 kts 224°
2026-04-29 14:39 34.87052 33.62031 22 ft 62 kts 225°
2026-04-29 14:39 34.86820 33.61734 20 ft 4 kts 226°
2026-04-29 14:39 34.86815 33.61728 20 ft 11 kts 227°
2026-04-29 14:40 34.86712 33.61592 20 ft 24 kts 227°
2026-04-29 14:40 34.86622 33.61425 20 ft 18 kts 277°
2026-04-29 14:40 34.86675 33.61327 21 ft 9 kts 313°
2026-04-29 14:40 34.86690 33.61309 21 ft 4 kts 313°
2026-04-29 14:41 34.86710 33.61268 22 ft 7 kts 287°
2026-04-29 14:41 34.86692 33.61199 21 ft 10 kts 233°
2026-04-29 14:41 34.86642 33.61129 21 ft 12 kts 244°
2026-04-29 14:41 34.86672 33.61032 21 ft 14 kts 312°
2026-04-29 14:42 34.86745 33.60947 20 ft 15 kts 315°
2026-04-29 14:42 34.86800 33.60952 22 ft 7 kts 50°
2026-04-29 14:42 34.86821 33.60979 20 ft 5 kts 45°
2026-04-29 14:42 34.86828 33.60987 20 ft 3 kts 44°
2026-04-29 14:43 34.86831 33.60990 20 ft 0 kts 44°